Voltar ao catálogo

COSMOS 2499 DEB

AtivoPO
NORAD 60608·DEBRIS·🇷🇺 Russia

Lançado May 23, 2014 de Plesetsk Cosmodrome

Loading…

Próximas Passagens (próximas 24 horas)

TLE

AtualizadoSource: Space-Track

Época: Sep 13, 2026, 09:23 UTC

1 60608U 14028BU  26256.39148744  .00000640  00000-0  13814-2 0  9995
2 60608  82.2926 136.0681 0302198   6.9887 353.5302 13.12829845159871

Acompanhe COSMOS 2499 DEB em tempo real com AllMySat

Download on the App Store